Wind_Speed
23 23 23 22 21 21 22 22 22 23 23 23 23 24 24 24 24 25 26 27 27 27 28 28 28 28 28 28 26 26 25 26 25 25 24 25 25 25 27 27 28 28 29
24 23 23 22 22 22 22 22 22 22 23 23 23 23 24 25 24 24 25 25 26 26 27 27 27 27 27 27 26 26 25 25 25 25 24 25 24 24 25 27 27 28 28
24 24 23 23 22 22 22 22 22 22 22 23 23 23 24 24 24 24 24 25 25 26 27 26 26 26 26 26 25 25 25 25 25 25 25 24 24 24 25 26 27 27 28
25 24 24 24 23 23 22 21 21 22 22 23 23 23 23 22 23 23 24 25 25 25 25 25 25 24 24 25 26 26 25 25 25 25 24 23 23 24 25 26 27 27 28
26 24 24 24 24 23 22 22 22 22 23 22 22 23 23 23 22 23 23 24 24 24 24 24 24 24 24 25 25 26 26 25 25 24 24 23 23 24 24 24 25 26 26
25 24 24 24 24 23 23 23 24 24 24 23 22 22 22 22 23 23 23 23 23 23 23 22 23 24 23 24 24 24 25 25 25 24 24 24 23 23 23 23 24 24 25
25 24 24 24 24 24 25 25 25 25 24 23 23 23 23 23 23 23 23 22 22 22 22 22 23 23 22 22 23 23 23 24 24 24 24 23 22 22 22 22 23 24 24
25 25 24 25 25 26 27 26 26 24 24 24 24 24 23 23 23 22 22 21 20 20 20 21 22 23 22 23 23 23 23 23 23 23 23 22 21 22 22 23 23 23 24
26 26 26 26 26 26 26 26 25 24 24 24 23 23 23 22 21 20 20 19 19 19 19 20 20 21 22 23 23 23 23 22 22 23 23 23 23 22 22 23 24 24 24
27 27 27 27 27 26 26 25 24 23 23 23 22 22 21 19 19 18 18 18 19 19 19 19 19 19 20 21 22 22 23 23 23 23 23 23 23 23 24 25 25 24 24
27 27 27 27 27 26 25 24 23 22 21 21 21 20 20 19 18 19 18 17 17 18 18 18 19 19 19 21 22 23 23 24 24 24 24 25 25 25 25 25 25 24 23
27 26 26 26 26 25 24 24 22 21 20 20 20 19 18 18 18 18 17 17 17 17 18 18 18 18 19 19 20 21 23 23 23 23 24 24 24 24 24 24 23 23 23
26 26 26 25 24 24 24 23 21 20 20 19 19 18 18 18 17 17 16 15 16 16 17 17 17 17 17 18 19 20 21 22 22 22 22 22 23 23 24 24 24 23 23
26 26 25 25 24 24 23 22 21 20 19 19 18 18 18 18 17 16 15 15 16 16 17 17 16 16 16 17 18 19 19 19 20 20 21 21 22 22 22 23 24 23 23
26 26 26 26 25 23 23 22 21 20 19 19 18 17 17 17 17 16 16 16 16 16 16 15 14 14 15 15 16 17 18 19 20 20 20 21 21 21 22 23 23 23 22
27 26 26 25 24 23 22 21 21 21 20 19 18 18 18 18 17 16 16 16 16 16 15 14 14 14 15 16 17 17 18 18 19 20 20 21 21 22 22 23 23 22 22
27 26 25 24 24 23 22 21 20 21 20 19 18 18 17 17 17 16 16 15 15 15 14 14 14 15 16 17 17 17 18 18 18 19 19 20 21 21 22 22 22 23 22
26 26 25 24 23 22 21 20 20 20 20 18 17 17 17 16 16 15 15 14 14 15 15 15 15 15 16 16 17 17 18 18 18 18 19 20 20 21 21 22 22 22 23
26 25 24 23 22 21 21 20 21 21 20 19 17 17 16 16 15 15 15 15 15 15 14 14 14 14 14 15 16 16 17 17 17 18 19 20 20 21 21 21 22 22 22
25 25 24 23 22 21 21 20 20 20 19 18 17 16 16 16 16 16 15 15 14 14 14 14 14 14 14 15 16 16 16 16 16 17 18 18 19 19 20 20 21 21 21
25 24 23 23 23 22 21 20 20 20 19 17 17 17 17 17 17 16 15 14 14 14 15 14 13 13 14 14 14 15 15 15 16 16 16 17 18 18 19 20 20 20 20
24 24 23 23 22 21 20 20 20 19 18 18 18 17 16 16 15 15 16 15 15 15 15 15 14 14 14 13 13 14 15 16 16 17 17 17 17 18 18 19 19 19 19
24 23 23 23 21 19 18 18 18 18 18 17 16 16 15 15 15 16 15 15 15 15 14 14 14 14 14 13 14 14 15 15 16 17 17 17 17 17 17 17 18 18 17
23 22 22 21 19 18 17 17 17 17 17 15 14 15 15 16 16 15 15 14 14 14 14 14 14 15 15 14 14 15 15 16 16 17 17 18 18 17 16 16 17 17 17
22 22 22 20 19 18 18 18 18 18 16 15 15 16 17 17 16 15 14 14 13 13 13 14 15 15 14 15 15 16 16 16 16 16 17 17 17 16 16 16 16 16 16
21 21 20 19 18 17 18 18 17 16 15 15 15 16 16 16 15 14 14 14 14 14 15 15 15 16 16 16 16 16 16 16 16 16 16 16 15 16 16 15 15 15 16
Wind_Direction
312 311 310 308 307 308 305 300 296 294 292 291 289 285 281 280 278 275 272 270 269 269 270 270 269 268 267 266 264 263 261 257 255 254 252 250 251 249 250 250 249 249 249
315 311 309 307 307 308 310 305 301 299 297 293 289 286 284 282 279 275 272 270 269 270 270 270 268 267 266 263 262 262 261 260 256 253 254 255 254 252 251 251 251 250 250
316 313 311 311 307 308 309 306 304 301 300 296 291 288 286 283 280 278 274 272 271 271 271 270 268 265 263 259 259 260 260 259 259 256 256 255 253 252 251 252 251 250 250
315 313 312 313 313 312 310 306 305 302 301 299 296 293 290 284 281 280 277 274 272 272 271 269 267 265 262 260 259 259 258 257 257 258 256 254 253 253 255 254 251 250 250
317 315 315 315 315 313 311 309 306 305 304 302 299 296 291 285 283 281 280 277 275 273 271 267 264 265 262 261 261 259 257 256 257 258 254 255 254 255 257 255 251 250 250
317 316 315 315 314 313 312 309 307 307 304 302 301 299 295 287 284 282 281 279 276 273 269 265 264 265 262 261 261 259 257 256 255 255 254 256 258 258 257 255 252 251 252
316 316 316 316 315 314 313 311 309 308 306 304 302 300 296 290 286 284 284 282 279 273 270 267 266 265 260 258 259 258 257 255 254 254 254 256 258 256 255 255 255 255 255
317 318 317 316 315 314 313 313 311 309 306 303 301 300 297 292 288 287 285 281 278 274 272 270 267 265 260 258 259 259 258 257 255 253 253 254 255 254 255 255 255 257 258
316 317 315 314 314 313 312 312 311 309 309 306 305 304 300 296 291 288 285 280 277 274 275 274 270 265 260 258 259 259 258 257 255 254 254 255 257 256 256 257 257 260 259
314 315 314 314 313 312 312 312 310 309 309 309 308 306 303 300 295 289 286 282 279 275 274 275 273 269 263 259 258 257 257 257 256 255 255 256 257 258 258 258 260 261 259
311 312 312 313 312 312 312 312 311 310 310 309 308 306 304 302 298 292 289 286 282 278 277 277 276 272 266 261 259 257 255 256 257 256 255 255 258 260 259 260 261 260 259
309 310 310 310 310 311 311 311 310 309 308 308 307 306 306 306 304 301 295 289 285 281 279 279 277 273 268 261 258 256 255 256 258 258 257 257 258 260 259 261 260 260 261
309 310 310 310 311 312 312 310 308 307 307 308 307 306 306 306 305 303 300 293 287 283 280 279 278 273 267 262 258 256 256 257 258 259 258 257 258 259 260 260 261 261 261
312 311 311 312 312 312 312 311 309 309 307 306 305 306 307 305 303 301 299 295 291 287 283 279 277 274 270 264 260 257 257 257 258 258 258 258 259 260 261 262 262 261 262
310 310 311 313 314 313 313 311 309 309 310 308 306 306 306 305 304 303 301 298 295 291 287 283 280 275 271 266 261 259 259 260 259 258 258 259 259 260 261 262 263 262 263
309 309 309 310 310 311 311 311 309 308 308 307 305 304 304 302 302 303 303 299 296 296 295 290 284 277 273 269 265 263 263 264 262 259 260 260 260 261 261 262 263 264 265
309 308 307 306 306 306 306 307 307 306 305 304 304 304 305 303 304 304 303 300 298 297 294 289 288 283 276 272 270 268 267 265 264 263 261 261 262 262 260 261 264 266 266
309 309 307 306 305 303 303 304 305 305 304 303 302 301 302 303 305 305 302 301 300 297 293 290 286 281 279 275 273 272 270 267 265 266 267 266 264 262 260 262 265 265 267
309 308 307 306 305 303 302 301 302 303 301 301 301 300 300 302 304 304 302 301 301 299 297 295 290 284 282 279 277 274 272 270 269 270 271 269 265 263 261 263 265 265 265
307 306 305 305 304 302 300 300 300 300 300 299 298 298 300 302 302 300 299 301 302 301 300 300 296 290 287 285 282 279 276 273 271 271 272 269 267 265 263 262 262 264 264
304 304 304 303 303 301 298 298 300 301 300 299 298 298 300 300 299 297 295 296 297 299 301 300 296 294 291 288 284 281 279 276 276 276 274 271 268 266 263 262 263 263 265
302 304 304 303 302 300 297 298 300 299 297 295 296 296 298 299 299 297 294 292 293 296 298 297 294 294 293 289 285 281 280 280 279 279 276 272 270 267 263 264 263 264 265
300 300 302 303 301 299 297 299 300 298 295 292 291 294 295 298 301 297 294 294 295 296 296 295 294 293 293 289 285 283 284 283 283 281 277 272 272 269 265 265 266 264 261
300 300 301 301 300 299 298 298 298 298 296 291 290 294 294 295 298 297 293 294 297 298 297 296 295 292 292 292 289 286 287 287 286 283 279 276 274 271 266 267 266 263 260
300 300 300 300 299 298 297 298 296 296 294 292 293 295 294 294 294 293 291 293 296 296 297 300 300 299 296 296 296 295 295 292 288 286 284 281 277 272 269 268 266 263 261
302 302 302 300 299 296 297 299 297 296 295 294 295 297 297 294 292 289 289 290 293 296 298 302 303 302 300 300 300 299 297 293 289 287 286 283 278 274 271 268 266 264 262
Height
5778 5774 5770 5766 5763 5759 5756 5753 5751 5748 5746 5744 5742 5740 5739 5738 5737 5736 5735 5734 5734 5734 5734 5733 5733 5733 5734 5734 5734 5734 5734 5735 5737 5738 5738 5740 5741 5743 5744 5746 5748 5751 5753
5773 5769 5765 5761 5757 5754 5750 5747 5744 5742 5739 5737 5735 5733 5731 5729 5728 5728 5727 5726 5726 5725 5725 5725 5725 5725 5725 5725 5726 5726 5727 5728 5729 5730 5731 5732 5733 5735 5736 5738 5740 5742 5744
5768 5763 5759 5755 5752 5748 5744 5741 5738 5735 5733 5730 5728 5726 5724 5722 5720 5719 5718 5718 5717 5717 5716 5716 5716 5717 5717 5717 5718 5719 5719 5720 5721 5722 5723 5724 5726 5727 5729 5730 5732 5734 5736
5762 5758 5753 5749 5746 5743 5739 5735 5732 5730 5727 5724 5722 5719 5717 5715 5713 5712 5710 5710 5709 5708 5708 5708 5708 5708 5709 5709 5710 5711 5711 5712 5713 5714 5716 5717 5718 5720 5721 5723 5724 5726 5728
5757 5753 5748 5745 5741 5737 5734 5730 5727 5724 5721 5718 5715 5713 5710 5708 5706 5705 5703 5702 5701 5700 5700 5700 5700 5700 5701 5701 5702 5703 5704 5705 5706 5707 5709 5710 5711 5712 5714 5715 5716 5718 5719
5753 5748 5744 5740 5736 5732 5729 5725 5722 5718 5715 5712 5709 5706 5704 5701 5700 5698 5696 5695 5694 5693 5693 5692 5692 5693 5693 5694 5695 5695 5696 5697 5699 5700 5701 5703 5704 5705 5706 5707 5709 5710 5712
5748 5743 5739 5735 5731 5727 5723 5720 5716 5712 5709 5706 5703 5700 5698 5695 5693 5691 5689 5688 5687 5686 5686 5686 5685 5685 5686 5687 5687 5688 5689 5690 5692 5693 5694 5696 5697 5698 5699 5700 5701 5703 5704
5742 5738 5734 5730 5726 5722 5718 5714 5710 5707 5704 5701 5698 5695 5691 5689 5686 5684 5682 5681 5680 5679 5679 5678 5678 5678 5679 5680 5680 5681 5683 5684 5685 5686 5688 5689 5690 5691 5692 5693 5694 5695 5696
5737 5733 5729 5725 5721 5717 5713 5709 5705 5702 5698 5695 5692 5689 5685 5683 5680 5678 5676 5675 5674 5673 5673 5672 5671 5671 5672 5672 5674 5675 5676 5677 5678 5679 5681 5682 5683 5684 5685 5686 5687 5688 5688
5732 5728 5723 5719 5715 5711 5707 5703 5700 5696 5693 5689 5686 5683 5680 5677 5675 5672 5670 5669 5668 5667 5666 5665 5664 5664 5664 5665 5666 5668 5669 5670 5671 5673 5674 5676 5676 5677 5678 5679 5679 5679 5680
5726 5722 5718 5714 5710 5706 5702 5698 5694 5691 5688 5684 5681 5678 5675 5672 5670 5667 5665 5663 5662 5661 5660 5659 5658 5657 5657 5658 5659 5660 5661 5663 5664 5665 5667 5668 5669 5669 5670 5671 5671 5672 5673
5721 5716 5712 5708 5704 5700 5696 5693 5689 5686 5683 5680 5677 5674 5671 5668 5665 5662 5660 5658 5656 5655 5654 5653 5652 5651 5651 5651 5651 5652 5654 5655 5656 5658 5659 5660 5661 5662 5663 5663 5664 5664 5665
5715 5711 5707 5703 5699 5695 5691 5688 5684 5681 5678 5675 5672 5669 5666 5663 5660 5658 5655 5653 5651 5650 5648 5647 5646 5645 5644 5644 5645 5645 5646 5648 5649 5650 5651 5653 5653 5654 5655 5656 5656 5657 5658
5709 5705 5701 5697 5693 5690 5685 5682 5679 5676 5673 5670 5667 5664 5661 5659 5656 5653 5651 5648 5646 5644 5642 5641 5640 5639 5638 5638 5638 5639 5640 5641 5642 5643 5644 5645 5646 5647 5648 5648 5649 5649 5650
5703 5699 5695 5691 5688 5684 5681 5677 5674 5671 5667 5665 5662 5659 5657 5654 5651 5648 5646 5643 5641 5639 5637 5635 5634 5634 5633 5633 5633 5633 5634 5634 5635 5636 5637 5638 5639 5640 5641 5641 5642 5642 5642
5696 5693 5689 5685 5682 5679 5675 5672 5669 5666 5663 5659 5657 5654 5651 5649 5646 5644 5641 5638 5636 5634 5632 5630 5629 5628 5628 5628 5627 5628 5628 5628 5628 5629 5630 5631 5632 5633 5633 5634 5634 5635 5635
5689 5686 5682 5679 5676 5673 5670 5667 5664 5661 5658 5655 5652 5649 5646 5644 5641 5639 5636 5634 5631 5629 5628 5626 5625 5624 5623 5622 5622 5622 5622 5622 5622 5622 5623 5624 5624 5625 5625 5626 5627 5627 5627
5682 5679 5675 5672 5669 5666 5664 5661 5659 5656 5653 5650 5647 5644 5642 5639 5637 5634 5632 5629 5627 5625 5623 5621 5620 5619 5617 5616 5616 5616 5616 5616 5616 5616 5616 5616 5617 5617 5618 5619 5620 5620 5620
5675 5672 5669 5665 5662 5660 5657 5655 5653 5650 5647 5644 5642 5640 5637 5635 5632 5630 5627 5625 5623 5621 5618 5617 5615 5613 5612 5611 5610 5610 5609 5609 5609 5609 5610 5610 5610 5610 5610 5611 5612 5613 5613
5669 5665 5662 5659 5656 5653 5651 5649 5646 5644 5641 5639 5637 5634 5632 5630 5628 5625 5623 5621 5618 5616 5614 5612 5610 5609 5608 5606 5605 5604 5603 5603 5603 5603 5603 5603 5603 5603 5603 5604 5605 5605 5606
5662 5659 5656 5653 5649 5646 5644 5642 5640 5637 5635 5633 5631 5629 5627 5625 5622 5620 5618 5616 5614 5612 5610 5608 5606 5604 5603 5601 5600 5599 5598 5598 5597 5597 5597 5597 5596 5596 5597 5597 5598 5598 5598
5655 5652 5649 5646 5643 5640 5638 5636 5634 5631 5629 5627 5625 5623 5621 5619 5618 5615 5613 5611 5609 5607 5605 5603 5602 5600 5598 5597 5595 5594 5593 5592 5592 5591 5591 5590 5590 5590 5590 5590 5591 5591 5591
5647 5645 5642 5639 5636 5634 5632 5630 5627 5625 5623 5622 5620 5618 5616 5614 5612 5610 5608 5607 5605 5603 5601 5599 5598 5596 5594 5592 5591 5589 5588 5587 5586 5586 5585 5584 5584 5584 5584 5584 5584 5584 5585
5640 5638 5635 5632 5630 5628 5626 5624 5622 5620 5618 5616 5614 5613 5611 5609 5608 5606 5604 5603 5601 5599 5597 5595 5594 5592 5590 5588 5586 5584 5583 5582 5581 5580 5579 5578 5578 5578 5578 5578 5578 5578 5578
5633 5631 5628 5626 5624 5622 5620 5618 5616 5614 5612 5610 5609 5607 5606 5604 5603 5601 5600 5598 5597 5595 5593 5591 5589 5587 5585 5583 5581 5579 5578 5576 5575 5574 5573 5572 5571 5571 5571 5571 5571 5572 5572
5627 5625 5623 5620 5619 5617 5615 5613 5611 5609 5607 5605 5604 5602 5600 5599 5597 5596 5595 5594 5592 5591 5589 5588 5585 5583 5580 5578 5576 5574 5573 5571 5570 5568 5567 5566 5566 5565 5565 5565 5565 5565 5566